Content
SEND FEEDBACK

Daily
Averages
Monthly
Summary
United States of America

YIGO, GUAM


Home > North America > United States > Guam
Elevation: 530 feet     Latitude: 13 32N     Longitude: 144 53E

WEATHER
 
SELECT A DAY
Number of Records: 214,954;   Date Range: 1/1/95 - 11/27/14
 
SHARE

PRINT THIS DATA

[ ← Previous Day ]
WEATHER ALMANAC - AUGUST 9, 2014
[ Next Day → ]
[ °C ]   °F
Weather ElementAverageHighLow
Temperature82.6 °F88 °F (12:54 pm)78.1 °F (1:54 am)
Dewpoint77.5 °F78.8 °F (12:47 pm)75.2 °F (12:49 am)
Humidity85 %96 % (5:54 am)70 % (12:50 pm)
Barometer29.83 in29.88 in (1:18 am)29.79 in (4:26 pm)
Wind Speed3.1 mph8.1 mph (1:54 am)
Weather ElementAverage
Visibility9.8 mi
Wind DirectionENE (68.6 °)

Weather ElementTotal
Precipitation0.09 in
Cooling Degree Days18.1 (Base 65)
Growing Degree Days33.1 (Base 50)
Averaged from 35 records on August 9, 2014
WEATHER CONDITIONS BREAKOUT
WIND DIRECTION BREAKOUT
WEATHER BY HOUR - AUGUST 9, 2014
[ °C ]   °F
Local TimeTemperatureDewpointHumidityBarometerVisibilityWind DirectionWind SpeedGust SpeedPrecipitationEventsConditions
12:54 AM79.0 °F75.9 °F90 %29.82 in10.0 miCalmScattered Clouds
1:03 AM80.6 °F77.0 °F89 %29.84 in10.0 miCalmMostly Cloudy
1:24 AM80.6 °F77.0 °F89 %29.83 in10.0 miNE (40°)3.5 mphScattered Clouds
1:54 AM80.1 °F78.1 °F94 %29.80 in7.0 miESE (120°)3.5 mph0.02 inRainRain
2:54 AM80.1 °F77.0 °F90 %29.79 in10.0 miENE (60°)6.9 mph0.03 inPartly Cloudy
3:54 AM80.1 °F77.0 °F90 %29.79 in10.0 miENE (70°)3.5 mphPartly Cloudy
4:54 AM79.0 °F75.9 °F90 %29.80 in10.0 miCalmClear
5:54 AM78.1 °F77.0 °F96 %29.81 in10.0 miCalmClear
6:54 AM80.1 °F78.1 °F94 %29.83 in10.0 miCalmScattered Clouds
7:01 AM80.6 °F78.8 °F94 %29.85 in10.0 miCalmMostly Cloudy
7:19 AM80.6 °F78.8 °F94 %29.85 in10.0 miCalmScattered Clouds
7:54 AM82.9 °F78.1 °F85 %29.83 in10.0 miCalmPartly Cloudy
8:54 AM82.9 °F78.1 °F85 %29.85 in10.0 miENE (70°)3.5 mph0.00 inOvercast
9:09 AM84.2 °F78.8 °F84 %29.87 in10.0 miCalmOvercast
9:54 AM84.0 °F78.1 °F82 %29.85 in10.0 miSE (130°)5.8 mphMostly Cloudy
10:11 AM86.0 °F77.0 °F74 %29.87 in10.0 miSE (130°)8.1 mphScattered Clouds
10:54 AM87.1 °F77.0 °F72 %29.85 in10.0 miESE (120°)5.8 mphScattered Clouds
11:54 AM87.1 °F77.0 °F72 %29.83 in10.0 miSE (130°)8.1 mphScattered Clouds
12:54 PM88.0 °F77.0 °F70 %29.81 in10.0 miVariable6.9 mphScattered Clouds
1:50 PM86.0 °F75.2 °F70 %29.83 in10.0 miSSE (160°)8.1 mphMostly Cloudy
1:54 PM87.1 °F77.0 °F72 %29.81 in10.0 miSSE (160°)6.9 mphScattered Clouds
2:54 PM86.0 °F78.1 °F77 %29.80 in10.0 miWest (270°)6.9 mphMostly Cloudy
3:23 PM84.2 °F77.0 °F79 %29.82 in10.0 miWest (270°)6.9 mphOvercast
3:54 PM84.0 °F77.0 °F79 %29.80 in10.0 miWSW (250°)6.9 mph0.00 inRainLight Rain
4:54 PM82.0 °F78.1 °F88 %29.80 in7.0 miWNW (300°)4.6 mph0.02 inRainLight Rain
5:37 PM82.4 °F78.8 °F89 %29.83 in10.0 miCalm0.01 inMostly Cloudy
5:54 PM82.9 °F78.1 °F85 %29.81 in10.0 miCalm0.01 inScattered Clouds
6:54 PM82.9 °F77.0 °F82 %29.83 in10.0 miCalmScattered Clouds
7:01 PM82.4 °F78.8 °F89 %29.85 in10.0 miCalmMostly Cloudy
7:03 PM82.4 °F78.8 °F89 %29.85 in10.0 miCalmScattered Clouds
7:54 PM82.0 °F78.1 °F88 %29.85 in10.0 miNNE (30°)4.6 mphPartly Cloudy
8:54 PM82.0 °F78.1 °F88 %29.86 in10.0 miCalmPartly Cloudy
9:54 PM81.0 °F77.0 °F88 %29.87 in10.0 miNNE (30°)3.5 mphPartly Cloudy
10:54 PM81.0 °F77.0 °F88 %29.88 in10.0 miCalmPartly Cloudy
11:54 PM80.1 °F77.0 °F90 %29.86 in10.0 miENE (60°)4.6 mphPartly Cloudy
Hourly data recorded from PGUM, located miles away from Yigo, Guam







STORIES FROM OUR PARTNERS